Waarnemingen

Advertentie
Mijn weer
Bergamo/Orio al Serio, Italië (16076): temperatuur & dauwpunt: 20.09.2018 11:00:00 - 26.09.2018 11:00:00 (CEST)Bergamo/Orio al Serio, Italië (16076): windsnelheid: 20.09.2018 11:00:00 - 26.09.2018 11:00:00 (CEST)Bergamo/Orio al Serio, Italië (16076): windrichting: 20.09.2018 11:00:00 - 26.09.2018 11:00:00 (CEST)Bergamo/Orio al Serio, Italië (16076): luchtdruk: 20.09.2018 11:00:00 - 26.09.2018 11:00:00 (CEST)Bergamo/Orio al Serio, Italië (16076): zicht: 20.09.2018 11:00:00 - 26.09.2018 11:00:00 (CEST)Bergamo/Orio al Serio, Italië (16076): neerslag: 20.09.2018 11:00:00 - 26.09.2018 11:00:00 (CEST)
Datum & Tijd tt [°C] td [°C] ff [km/u] ff [kn] dd ppp [hPa] vv [km] rr [mm]
26.09.2018 11:00:00 15,5 3,9 8 4 ZO 1039,6 10 0,0
26.09.2018 10:00:00 14,0 4,0 15 8 ZO - 10 -
26.09.2018 09:00:00 14,0 4,0 5 3 - - 10 -
26.09.2018 08:00:00 11,7 4,6 4 2 - 1038,3 10 -
26.09.2018 07:00:00 12,0 5,0 4 2 O - 10 -
26.09.2018 06:00:00 11,0 5,0 4 2 - - 10 -
26.09.2018 05:00:00 11,2 5,6 8 4 NO 1037,8 10 0,0
26.09.2018 04:00:00 13,0 4,0 5 3 NNW - 10 -
26.09.2018 03:00:00 12,0 4,0 - - - - 2,8 -
26.09.2018 02:00:00 13,1 3,9 5 3 NO 1036,8 10 -
26.09.2018 01:00:00 15,0 1,0 8 4 ONO - 10 -
26.09.2018 00:00:00 15,0 2,0 5 3 O - 10 -
25.09.2018 23:00:00 15,0 3,0 8 4 O 1035,1 10 0,0
25.09.2018 22:00:00 15,0 4,0 11 6 OZO - 10 -
25.09.2018 21:00:00 16,0 4,0 5 3 ZO - 10 -
25.09.2018 20:00:00 16,7 3,5 9 5 ZO 1032,6 15 -
25.09.2018 19:00:00 18,0 4,0 9 5 ZO - 10 -
25.09.2018 18:00:00 19,0 3,0 11 6 Z - 10 -
25.09.2018 17:00:00 19,2 2,6 11 6 ZZO 1031,4 10 0,0
25.09.2018 16:00:00 20,0 4,0 8 4 - - 10 -
25.09.2018 15:00:00 19,0 3,0 8 4 ZZO - 10 -
25.09.2018 14:00:00 19,1 4,4 11 6 O 1032,1 10 -
25.09.2018 13:00:00 18,0 4,0 13 7 ZZO - 10 -
25.09.2018 12:00:00 18,0 3,0 18 10 ZO - 10 -
25.09.2018 11:00:00 17,9 3,5 15 8 ZO 1032,6 10 0,0
25.09.2018 10:00:00 16,0 4,0 13 7 O - 10 -
25.09.2018 09:00:00 15,0 5,0 5 3 O - 10 -
25.09.2018 08:00:00 14,5 7,3 4 2 NO 1031,4 10 -
25.09.2018 07:00:00 14,0 8,0 4 2 - - 10 -
25.09.2018 06:00:00 15,0 7,0 2 1 - - 10 -
25.09.2018 05:00:00 14,8 7,2 2 1 - 1030,3 10 0,0
25.09.2018 04:00:00 14,0 8,0 11 6 OZO - 10 -
25.09.2018 03:00:00 15,0 7,0 5 3 ZZO - 10 -
25.09.2018 02:00:00 16,8 7,6 16 9 OZO 1029,2 10 -
25.09.2018 01:00:00 17,0 9,0 8 4 ZO - 10 -
25.09.2018 00:00:00 18,0 9,0 15 8 ZO - 10 -
24.09.2018 23:00:00 17,9 9,1 15 8 ZO 1027,7 10 0,0
24.09.2018 22:00:00 18,0 11,0 15 8 ZO - 10 -
24.09.2018 21:00:00 18,0 11,0 15 8 ZO - 10 -
24.09.2018 20:00:00 19,1 11,1 22 12 ZO 1024,1 10 -
24.09.2018 19:00:00 21,0 11,0 26 14 ZO - 10 -
24.09.2018 18:00:00 22,0 12,0 26 14 ZO - 10 -
24.09.2018 17:00:00 24,0 12,0 34 18 OZO - 10 -
24.09.2018 16:00:00 27,0 6,0 21 11 ZO - 10 -
24.09.2018 15:00:00 28,0 3,0 15 8 OZO - 10 -
24.09.2018 14:00:00 27,4 3,6 4 2 - 1018,4 10 -
24.09.2018 13:00:00 27,0 2,0 8 4 - - 10 -
24.09.2018 12:00:00 26,0 3,0 15 8 NNO - 10 -
24.09.2018 11:00:00 24,8 4,3 9 5 NNW 1016,6 10 0,0
24.09.2018 10:00:00 24,0 7,0 13 7 N - 10 -
24.09.2018 09:00:00 22,0 9,0 11 6 N - 10 -
24.09.2018 08:00:00 18,1 15,0 5 3 W 1012,5 10 -
24.09.2018 07:00:00 19,0 16,0 2 1 - - 10 -
24.09.2018 06:00:00 19,0 17,0 11 6 W - 10 -
24.09.2018 05:00:00 20,1 17,1 18 10 W 1011,0 10 0,0
24.09.2018 04:00:00 21,0 17,0 13 7 W - 10 -
24.09.2018 03:00:00 22,0 17,0 15 8 WNW - 10 -
24.09.2018 02:00:00 21,2 16,6 18 10 W 1011,5 10 -
24.09.2018 01:00:00 23,0 16,0 15 8 WNW - 10 -
24.09.2018 00:00:00 22,0 17,0 21 11 W - 10 -
23.09.2018 23:00:00 22,5 17,3 15 8 W 1014,0 10 0,0
23.09.2018 22:00:00 24,0 17,0 11 6 WZW - 10 -
23.09.2018 21:00:00 23,0 18,0 4 2 N - 10 -
23.09.2018 20:00:00 23,1 17,0 4 2 - 1014,7 10 -
23.09.2018 19:00:00 26,0 16,0 9 5 ZZW - 10 -
23.09.2018 18:00:00 27,0 17,0 9 5 Z - 10 -
23.09.2018 17:00:00 27,2 16,7 8 4 ZZW 1015,9 10 0,0
23.09.2018 16:00:00 27,0 17,0 8 4 - - 10 -
23.09.2018 15:00:00 26,0 17,0 8 4 - - 10 -
23.09.2018 14:00:00 25,2 18,2 4 2 - 1018,1 10 -
23.09.2018 13:00:00 24,0 17,0 8 4 ZZW - 9 -
23.09.2018 12:00:00 22,0 17,0 8 4 ZZW - 9 -
23.09.2018 11:00:00 21,1 16,3 5 3 ZZW 1019,6 8 0,0
23.09.2018 10:00:00 20,0 16,0 4 2 - - 8 -
23.09.2018 09:00:00 19,0 15,0 4 2 - - 8 -
23.09.2018 08:00:00 17,2 15,8 2 1 - 1018,9 7 -
23.09.2018 07:00:00 17,0 16,0 2 1 - - 8 -
23.09.2018 06:00:00 18,0 15,0 5 3 ZZW - 8 -
23.09.2018 05:00:00 19,1 15,9 2 1 - 1019,0 8 0,0
23.09.2018 04:00:00 19,0 17,0 0 0 N - 8 -
23.09.2018 03:00:00 19,0 17,0 5 3 ZO - 8 -
23.09.2018 02:00:00 19,6 17,0 4 2 - 1019,4 7 -
23.09.2018 01:00:00 21,0 18,0 8 4 ZO - 7 -
23.09.2018 00:00:00 22,0 19,0 11 6 ZO - 10 -
22.09.2018 23:00:00 21,6 18,2 8 4 N 1018,7 10 0,0
22.09.2018 22:00:00 22,0 19,0 8 4 N - 10 -
22.09.2018 21:00:00 23,0 19,0 8 4 N - 10 -
22.09.2018 20:00:00 23,9 18,6 4 2 - 1017,2 10 -
22.09.2018 19:00:00 26,0 18,0 9 5 Z - 10 -
22.09.2018 18:00:00 27,0 18,0 4 2 - - 10 -
22.09.2018 17:00:00 27,0 17,1 5 3 - 1016,1 10 0,0
22.09.2018 16:00:00 27,0 17,0 11 6 WZW - 10 -
22.09.2018 15:00:00 27,0 17,0 5 3 W - 10 -
22.09.2018 14:00:00 26,5 17,3 9 5 W 1016,9 10 -
22.09.2018 13:00:00 26,0 18,0 5 3 - - 10 -
22.09.2018 12:00:00 25,0 18,0 13 7 W - 10 -
22.09.2018 11:00:00 24,3 16,4 4 2 - 1017,0 10 0,0
22.09.2018 10:00:00 22,0 16,0 5 3 N - 10 -
22.09.2018 09:00:00 20,0 16,0 4 2 - - 10 -
22.09.2018 08:00:00 18,4 15,4 8 4 N 1015,6 10 -
22.09.2018 07:00:00 18,0 15,0 5 3 N - 10 -
22.09.2018 06:00:00 19,0 15,0 8 4 N - 10 -
22.09.2018 05:00:00 18,3 15,4 5 3 NNO 1014,5 - 0,0
22.09.2018 04:00:00 20,0 16,0 5 3 NNW - 10 -
22.09.2018 03:00:00 21,0 16,0 5 3 NNW - 10 -
22.09.2018 02:00:00 20,8 15,6 2 1 - 1014,9 10 -
22.09.2018 01:00:00 21,0 16,0 11 6 N - 10 -
22.09.2018 00:00:00 21,0 17,0 9 5 N - 10 -
21.09.2018 23:00:00 21,1 16,5 8 4 N 1015,6 10 0,0
21.09.2018 22:00:00 22,0 17,0 9 5 N - 10 -
21.09.2018 21:00:00 23,0 17,0 8 4 N - 10 -
21.09.2018 20:00:00 23,5 16,6 5 3 N 1014,7 10 -
21.09.2018 19:00:00 27,0 15,0 8 4 ZZW - 10 -
21.09.2018 18:00:00 27,0 15,0 9 5 W - 10 -
21.09.2018 17:00:00 28,7 15,2 9 5 WZW 1015,0 10 0,0
21.09.2018 16:00:00 28,0 15,0 8 4 W - 10 -
21.09.2018 15:00:00 28,0 16,0 13 7 ZW - 10 -
21.09.2018 14:00:00 27,2 16,7 8 4 ZZW 1016,2 8 -
21.09.2018 13:00:00 27,0 17,0 9 5 ZW - 9 -
21.09.2018 12:00:00 25,0 18,0 5 3 - - 10 -
21.09.2018 11:00:00 24,1 16,6 5 3 ZZO 1017,4 10 0,0
21.09.2018 10:00:00 22,0 17,0 2 1 - - 10 -
21.09.2018 09:00:00 20,0 16,0 4 2 - - 9 -
21.09.2018 08:00:00 18,5 15,4 9 5 N 1017,4 7 -
21.09.2018 07:00:00 19,0 15,0 8 4 N - 10 -
21.09.2018 06:00:00 18,0 16,0 8 4 NNO - 10 -
21.09.2018 05:00:00 18,8 15,8 8 4 N 1017,4 10 0,0
21.09.2018 04:00:00 19,0 16,0 9 5 N - 10 -
21.09.2018 03:00:00 19,0 16,0 8 4 NNO - 10 -
21.09.2018 02:00:00 19,4 16,4 9 5 N 1018,4 10 -
21.09.2018 01:00:00 20,0 17,0 8 4 N - 10 -
21.09.2018 00:00:00 20,0 17,0 9 5 N - 10 -
20.09.2018 23:00:00 20,3 17,1 9 5 N 1018,7 10 0,0
20.09.2018 22:00:00 21,0 18,0 11 6 N - 10 -
20.09.2018 21:00:00 22,0 18,0 9 5 N - 8 -
20.09.2018 20:00:00 23,4 17,2 5 3 ZZW 1018,5 7 -
20.09.2018 19:00:00 27,0 17,0 9 5 Z - 8 -
20.09.2018 18:00:00 27,0 16,0 9 5 ZZO - 10 -
20.09.2018 17:00:00 28,0 16,0 9 5 Z - 10 -
20.09.2018 16:00:00 29,0 17,0 8 4 - - 10 -
20.09.2018 15:00:00 28,0 18,0 8 4 W - 10 -
20.09.2018 14:00:00 27,7 17,5 5 3 WNW 1020,0 10 -
20.09.2018 13:00:00 27,0 17,0 5 3 - - 10 -
20.09.2018 12:00:00 25,0 17,0 8 4 W - 10 -
20.09.2018 11:00:00 24,8 16,9 2 1 - 1021,3 10 0,0

tt = temperatuur
td = dauwpunt
ff = windsnelheid
dd = windrichting
ppp = luchtdruk
vv = zicht
rr = neerslag

Weerstations in de omgeving